Date,TemperatureHighF,TemperatureAvgF,TemperatureLowF,DewpointHighF,DewpointAvgF,DewpointLowF,HumidityHigh,HumidityAvg,HumidityLow,PressureMaxIn,PressureMinIn,WindSpeedMaxMPH,WindSpeedAvgMPH,GustSpeedMaxMPH,PrecipitationSumIn
2014-2-28,18.9,16.9,15.6,11.7,6.6,-99.9,81,65,54,30.25,30.08,19,-6,19,0.00
2014-3-1,31.8,22.7,15.3,23.4,17.1,11.1,88,79,64,30.24,30.03,12,1,12,0.00
2014-3-2,18.1,13.6,5.2,15.3,7.9,-0.8,95,78,67,30.36,30.21,15,2,15,0.12
2014-3-3,14.4,5.0,-3.8,1.2,-4.2,-9.8,78,66,51,30.48,30.34,11,1,12,0.03
2014-3-4,20.1,11.4,-3.5,11.3,0.7,-9.4,85,62,43,30.42,30.20,10,1,11,0.00
2014-3-5,26.1,19.7,12.7,15.8,11.2,6.3,82,69,59,30.49,30.23,14,2,14,0.02
2014-3-6,27.5,17.3,7.9,15.6,9.9,3.6,92,73,58,30.48,30.15,5,1,13,0.01
2014-3-7,43.5,27.5,8.2,30.6,19.4,5.0,89,73,54,30.15,29.88,11,1,11,0.00
2014-3-8,39.0,32.3,24.1,33.1,27.6,19.2,91,83,73,30.15,29.88,13,2,14,0.12
2014-3-9,36.3,27.4,13.3,28.4,20.5,10.4,89,76,55,30.22,29.82,18,2,18,0.00
2014-3-10,49.6,42.0,33.6,38.3,34.1,28.2,87,74,60,29.82,29.53,19,2,19,0.00
2014-3-11,53.4,43.2,37.4,38.5,36.2,33.3,92,78,53,29.70,29.57,13,1,14,0.04
2014-3-12,38.1,25.2,8.1,35.4,22.1,4.3,92,88,81,30.01,29.53,26,6,28,0.00
2014-3-13,23.2,13.6,-1.1,12.6,5.9,-5.3,85,72,55,30.17,29.96,16,2,16,0.05
2014-3-14,50.5,35.9,18.0,37.4,27.9,12.2,87,73,59,29.96,29.53,22,4,26,0.02
2014-3-15,41.2,36.2,28.8,32.0,26.7,16.7,84,69,50,30.22,29.68,18,2,18,0.00
2014-3-16,28.8,19.6,13.1,17.4,8.7,1.9,73,63,48,30.37,30.19,18,5,20,0.00
2014-3-17,31.5,18.8,7.3,19.4,10.0,1.4,83,69,51,30.17,29.91,11,1,12,0.00
2014-3-18,42.4,30.8,19.0,33.6,25.0,15.4,89,79,68,29.99,29.81,11,1,11,0.00
2014-3-19,45.3,38.3,32.0,42.6,35.5,27.7,92,90,83,29.83,29.56,21,2,21,0.15
2014-3-20,41.7,34.9,26.1,33.1,27.1,21.4,91,74,57,30.03,29.79,22,2,22,0.00
2014-3-21,40.3,31.3,21.6,32.0,25.6,18.5,92,80,65,30.06,29.65,13,1,13,0.00
2014-3-22,40.6,35.8,29.1,36.1,29.7,20.8,92,79,62,30.19,29.64,17,2,20,0.10
2014-3-23,29.1,22.4,16.5,20.8,12.2,7.9,80,64,54,30.35,30.18,17,3,19,0.00
2014-3-24,33.1,21.5,11.7,19.0,12.4,8.1,92,69,50,30.34,30.08,13,1,16,0.00
2014-3-25,31.5,23.6,17.8,22.8,14.8,9.5,83,69,52,30.16,29.91,17,2,17,0.01
2014-3-26,32.4,22.1,9.7,20.1,12.5,5.7,87,68,48,30.34,30.15,17,1,20,0.00
2014-3-27,44.1,35.0,28.0,39.7,27.9,19.9,88,75,65,30.16,29.61,26,5,26,0.07
2014-3-28,48.2,42.4,37.0,44.4,37.5,31.6,90,83,76,30.14,29.52,23,4,25,0.01
2014-3-29,37.9,35.4,30.9,32.2,29.6,24.8,85,79,72,30.14,30.02,21,5,21,0.00
2014-3-30,49.5,36.9,25.0,27.9,24.5,21.0,86,63,40,30.18,30.07,17,2,17,0.00
2014-3-31,61.0,43.1,27.7,41.7,30.5,22.5,82,62,44,30.16,29.92,17,2,18,0.00
2014-4-1,59.0,47.1,36.1,47.3,36.1,28.6,85,66,49,29.98,29.67,26,3,31,0.03
2014-4-2,55.6,43.7,32.2,35.2,29.8,26.1,80,60,37,30.13,29.98,10,1,10,0.00
2014-4-3,44.4,36.6,32.7,34.7,30.1,22.5,91,78,58,30.11,29.78,13,2,15,0.69
2014-4-4,48.0,38.1,34.3,45.9,35.7,31.6,92,91,84,29.78,29.40,23,2,23,0.15
2014-4-5,50.5,38.4,30.4,31.8,27.3,21.9,90,66,39,30.16,29.73,19,2,19,0.00
2014-4-6,54.0,39.5,22.8,34.0,26.1,19.0,87,61,33,30.19,29.98,11,1,11,0.00
2014-4-7,55.0,42.1,33.3,39.7,31.8,24.6,91,69,41,29.98,29.43,15,2,15,0.38
2014-4-8,62.1,48.0,35.8,39.2,36.8,33.1,92,68,38,29.76,29.43,13,2,14,0.06
2014-4-9,59.2,46.8,32.4,36.1,31.5,26.6,82,57,34,29.96,29.75,17,2,17,0.00
2014-4-10,71.2,54.1,41.9,49.1,42.2,35.4,81,66,42,29.88,29.60,23,4,26,0.01
2014-4-11,68.4,53.1,36.3,40.3,34.5,29.5,91,55,25,29.98,29.83,9,1,12,0.00
2014-4-12,71.1,57.8,40.1,55.6,42.3,29.1,72,57,32,30.03,29.73,29,3,29,0.00
2014-4-13,77.4,64.9,49.8,61.3,54.8,45.9,89,71,55,29.78,29.52,23,3,23,0.00
2014-4-14,69.3,55.8,32.0,57.4,46.4,29.5,90,71,56,29.77,29.33,40,5,40,0.06
2014-4-15,35.4,28.7,23.7,29.5,20.7,14.2,91,73,46,30.23,29.75,17,2,21,0.13
2014-4-16,45.0,31.8,18.7,29.3,20.8,12.2,92,65,42,30.42,30.23,18,2,18,0.00
2014-4-17,66.6,47.1,28.9,38.8,32.4,24.3,90,61,33,30.32,30.16,21,3,23,0.00
2014-4-18,66.6,54.9,46.4,47.3,40.6,34.9,83,60,36,30.25,30.15,13,1,13,0.00
2014-4-19,58.8,45.5,33.1,38.7,32.9,28.0,83,63,37,30.40,30.25,14,2,14,0.00
2014-4-20,73.2,53.3,35.1,41.9,35.3,28.6,81,55,26,30.30,30.04,17,2,17,0.00
2014-4-21,77.4,60.9,42.3,54.7,45.3,35.8,85,60,34,30.05,29.68,16,1,16,0.00
2014-4-22,59.0,51.9,38.7,55.6,42.4,29.7,92,71,52,29.90,29.59,23,3,23,0.00
2014-4-23,56.5,44.6,35.8,34.3,28.4,20.1,78,56,31,30.08,29.90,18,3,18,0.00
2014-4-24,55.8,46.4,40.3,35.2,29.1,22.6,75,52,35,30.13,29.80,16,2,17,0.00
2014-4-25,58.3,46.6,41.0,47.8,38.0,28.9,91,73,56,29.80,29.62,16,1,16,0.41
2014-4-26,58.6,49.5,40.1,41.0,37.9,34.0,85,66,44,30.03,29.72,18,3,19,0.00
2014-4-27,55.6,45.0,34.5,40.6,34.3,29.8,85,67,48,30.12,30.00,18,2,18,0.00
2014-4-28,54.1,47.5,43.2,41.7,37.7,33.3,77,69,60,30.00,29.72,19,4,20,0.04
2014-4-29,74.7,58.4,46.6,59.7,49.3,41.2,92,75,38,29.74,29.49,28,4,31,1.01
2014-4-30,67.8,57.8,51.6,55.6,51.5,46.2,90,80,58,29.74,29.64,19,3,19,0.01
2014-5-1,54.1,47.7,40.5,46.2,40.8,36.1,91,77,59,29.73,29.69,19,2,21,0.06
2014-5-2,54.3,48.5,44.2,47.7,44.0,41.5,91,85,72,29.76,29.68,14,2,14,0.02
2014-5-3,62.2,51.8,44.2,48.4,43.2,37.0,91,74,46,29.79,29.59,19,2,23,0.02
2014-5-4,58.5,51.3,39.7,43.0,36.3,30.7,83,58,39,30.04,29.76,25,2,29,0.00
2014-5-5,55.2,45.7,38.3,44.1,37.7,30.9,85,74,58,30.04,29.92,11,1,13,0.00
2014-5-6,63.7,49.7,35.2,43.5,38.7,32.5,91,68,42,30.04,29.94,14,2,14,0.00
2014-5-7,67.1,53.1,43.5,55.4,45.8,36.7,90,77,63,30.04,29.87,18,2,18,0.38
2014-5-8,86.5,68.5,49.3,68.7,57.6,44.4,89,69,52,29.93,29.78,18,2,18,0.00
2014-5-9,76.5,67.9,60.4,63.9,59.7,55.9,88,76,59,29.81,29.63,23,3,24,0.13
2014-5-10,73.6,60.7,49.5,56.3,47.1,40.6,87,63,38,29.93,29.72,15,1,16,0.00
2014-5-11,81.1,62.6,43.5,62.2,50.5,39.9,90,67,45,30.02,29.85,12,2,16,0.00
2014-5-12,81.0,67.0,57.6,74.5,63.4,55.2,92,88,73,29.94,29.83,20,2,20,0.46
2014-5-13,84.9,70.3,60.6,72.7,66.0,57.4,92,87,62,29.97,29.78,34,3,34,0.50
2014-5-14,60.4,56.2,49.6,57.6,52.5,47.5,92,87,75,30.07,29.87,14,2,16,0.33
2014-5-15,55.9,49.7,42.3,53.6,46.6,36.7,92,89,81,29.96,29.62,14,2,16,0.58
2014-5-16,55.9,44.8,32.7,41.7,36.5,30.7,92,74,48,29.98,29.92,14,1,14,0.00
2014-5-17,56.7,47.2,41.4,42.8,38.7,35.8,88,73,49,30.15,29.97,12,1,12,0.02
2014-5-18,66.7,53.0,37.4,44.2,39.4,34.5,91,63,37,30.22,30.15,16,1,16,0.00
2014-5-19,70.0,58.3,44.4,50.0,42.3,37.9,86,58,36,30.24,30.05,16,2,16,0.00
2014-5-20,79.2,64.3,52.2,66.4,55.0,45.1,88,72,61,30.14,29.78,22,3,23,0.07
2014-5-21,83.7,71.4,59.9,70.9,63.3,51.4,92,77,46,29.80,29.70,12,1,14,0.28
2014-5-22,72.3,63.4,54.9,55.9,52.7,47.3,85,69,52,30.00,29.75,17,2,19,0.00
2014-5-23,69.8,58.6,46.0,54.9,48.8,42.8,90,71,53,30.10,29.99,16,2,16,0.00
2014-5-24,76.3,62.5,48.6,56.7,51.4,46.2,92,70,44,30.16,30.05,9,0,9,0.00
2014-5-25,81.0,66.3,49.8,61.0,53.4,47.3,92,67,39,30.11,29.97,14,1,15,0.00
2014-5-26,86.4,70.6,54.1,68.5,59.3,50.9,91,70,43,30.01,29.84,15,1,16,0.00
2014-5-27,84.4,71.7,65.8,72.3,66.6,62.4,92,84,64,29.88,29.78,14,1,14,0.18
2014-5-28,69.1,65.3,61.2,65.1,61.5,57.6,92,88,74,30.01,29.81,8,1,13,0.00
2014-5-29,77.2,65.0,53.4,61.9,56.3,50.5,92,75,51,30.09,30.00,11,1,11,0.00
2014-5-30,81.7,65.9,49.3,60.8,54.2,47.1,92,69,43,30.14,30.06,10,1,11,0.00
2014-5-31,82.8,67.8,54.0,63.9,55.5,48.0,91,67,47,30.17,30.07,16,1,16,0.00
2014-6-1,85.6,68.0,48.9,62.1,54.1,44.8,91,64,38,30.13,29.91,15,1,15,0.00
2014-6-2,82.2,71.9,61.0,72.3,66.2,56.1,91,83,65,29.93,29.77,23,3,24,0.14
2014-6-3,80.1,71.2,56.5,69.4,61.7,52.0,92,74,49,29.86,29.74,21,1,21,0.05
2014-6-4,63.3,58.8,52.7,59.4,55.7,49.6,92,89,80,29.86,29.75,7,0,7,0.15
2014-6-5,74.8,62.2,49.6,56.8,51.5,47.5,92,71,43,29.90,29.78,17,2,17,0.05
2014-6-6,80.1,64.2,46.6,59.7,51.8,43.9,92,67,38,29.96,29.88,10,0,10,0.00
2014-6-7,82.8,68.2,49.5,62.4,54.3,46.9,92,65,37,29.99,29.80,15,1,15,0.00
2014-6-8,77.4,66.9,60.4,63.5,57.5,52.5,92,73,45,29.92,29.71,16,2,19,0.20
2014-6-9,80.2,66.7,53.6,62.6,56.5,51.1,92,72,44,29.95,29.85,10,1,11,0.00
2014-6-10,75.0,66.3,55.0,63.9,58.2,52.3,92,76,64,29.88,29.78,10,1,11,0.00
2014-6-11,75.0,67.5,62.8,69.3,64.1,58.5,92,89,75,29.78,29.62,13,1,15,1.10
2014-6-12,76.8,69.0,64.2,68.9,65.0,61.9,92,87,71,29.70,29.62,12,0,13,0.03
2014-6-13,67.5,62.0,47.3,63.1,53.9,44.2,92,76,59,29.98,29.68,16,2,21,0.00
2014-6-14,76.8,59.7,43.3,56.3,49.4,41.2,92,72,41,30.09,29.97,13,1,13,0.00
2014-6-15,82.0,67.4,49.8,64.2,56.3,47.7,92,70,44,30.06,29.86,22,2,22,0.00
2014-6-16,87.8,76.0,64.8,72.0,65.9,61.2,91,73,47,29.98,29.90,10,0,12,0.00
2014-6-17,87.3,76.5,63.9,76.6,69.4,60.8,92,80,63,29.93,29.72,22,2,22,0.00
2014-6-18,84.9,71.2,66.9,75.4,66.7,63.5,92,86,71,29.98,29.81,17,1,18,0.61
2014-6-19,76.8,69.8,63.1,69.6,65.8,60.8,92,88,75,30.06,29.89,11,1,11,0.01
2014-6-20,66.6,61.2,56.8,62.2,57.6,53.8,92,88,78,30.04,29.90,12,1,15,0.12
2014-6-21,81.7,67.6,57.6,66.9,59.4,55.2,93,77,54,29.94,29.81,8,1,8,0.00
2014-6-22,80.8,68.9,59.5,66.9,60.8,56.3,92,76,61,29.90,29.80,11,1,12,0.02
2014-6-23,78.1,68.4,58.5,72.7,64.7,56.1,92,88,78,29.89,29.78,15,1,15,0.10
2014-6-24,78.4,71.3,65.8,73.8,68.2,63.7,93,90,82,29.83,29.77,13,1,13,0.26
2014-6-25,79.2,70.5,63.7,71.8,66.2,61.3,93,87,73,29.92,29.79,13,2,14,0.00
2014-6-26,80.4,69.0,60.1,68.5,63.0,57.9,93,82,61,30.01,29.92,8,1,9,0.01
2014-6-27,83.1,70.8,57.9,70.7,63.1,55.6,95,78,59,30.05,29.98,10,1,10,0.00
2014-6-28,83.8,72.2,62.6,75.2,68.0,60.1,93,87,68,30.06,29.94,16,1,22,0.27
2014-6-29,85.8,76.0,69.8,75.9,71.0,67.3,93,85,66,29.98,29.84,15,1,18,0.00
2014-6-30,83.8,76.5,70.5,76.5,71.7,68.0,92,85,75,29.87,29.66,12,2,16,0.00
2014-7-1,83.1,73.4,64.0,72.5,67.4,62.1,93,82,60,29.69,29.48,29,1,29,0.70
2014-7-2,77.7,69.5,60.8,68.5,63.0,56.8,93,81,58,29.88,29.68,14,1,14,0.00
2014-7-3,72.1,62.4,54.7,59.2,55.6,51.1,92,80,50,30.09,29.85,14,1,14,0.07
2014-7-4,74.7,62.4,51.1,59.9,52.6,48.9,93,73,46,30.24,30.09,18,2,18,0.00
2014-7-5,78.1,64.4,49.5,63.1,55.3,47.1,92,74,47,30.24,30.02,17,1,17,0.00
2014-7-6,79.5,69.2,54.9,70.0,62.6,52.5,93,80,65,30.02,29.66,18,2,20,0.00
2014-7-7,85.3,74.9,63.3,76.1,69.9,60.8,92,85,68,29.68,29.58,15,1,15,0.51
2014-7-8,77.4,69.8,62.4,71.8,65.4,60.1,93,86,65,29.70,29.51,18,1,18,0.55
2014-7-9,76.6,66.6,57.9,64.9,60.3,55.2,95,81,61,29.96,29.70,11,1,11,0.00
2014-7-10,77.4,65.7,54.3,62.2,57.5,52.0,93,77,50,30.11,29.96,11,1,11,0.00
2014-7-11,80.6,67.9,54.9,66.4,59.9,52.5,93,77,53,30.17,30.06,10,0,11,0.00
2014-7-12,83.1,72.6,59.9,72.3,65.8,57.4,92,80,61,30.10,29.82,13,1,13,0.00
2014-7-13,82.2,73.7,63.0,72.9,68.0,60.1,93,83,62,29.82,29.72,12,1,15,0.33
2014-7-14,80.8,69.1,62.4,70.5,63.6,59.7,93,84,54,29.81,29.67,9,0,9,0.33
2014-7-15,70.9,63.1,54.1,60.4,56.9,51.3,93,81,62,29.83,29.65,8,0,9,0.01
2014-7-16,70.9,59.1,50.9,59.5,53.9,48.7,93,84,63,29.96,29.83,13,1,13,0.19
2014-7-17,75.7,63.7,52.5,61.9,55.4,50.5,93,77,48,30.08,29.95,9,0,9,0.00
2014-7-18,77.4,63.8,51.1,62.8,55.8,49.1,93,77,52,30.17,30.07,9,0,9,0.00
2014-7-19,76.5,66.4,59.0,66.2,61.0,55.4,92,83,67,30.07,29.95,11,1,12,0.01
2014-7-20,81.9,68.5,56.7,68.2,61.7,54.3,93,81,55,30.02,29.95,6,0,6,0.00
2014-7-21,86.2,71.8,57.7,70.3,62.6,55.6,95,75,49,30.07,29.98,9,0,9,0.00
2014-7-22,88.5,74.7,59.5,75.6,66.6,57.2,93,77,57,30.04,29.85,17,1,17,0.00
2014-7-23,76.8,70.5,64.0,71.1,63.2,57.0,87,78,66,30.01,29.78,15,3,17,0.00
2014-7-24,75.9,64.3,54.1,58.8,54.5,50.7,90,72,49,30.06,29.96,13,2,13,0.00
2014-7-25,78.1,63.8,50.4,62.4,56.5,48.2,92,79,52,30.03,29.88,12,1,14,0.02
2014-7-26,81.3,68.6,56.1,70.0,62.8,53.8,93,83,60,29.90,29.71,12,1,12,0.01
2014-7-27,87.1,71.5,59.9,73.2,66.1,57.6,93,84,57,29.72,29.49,26,1,40,1.19
2014-7-28,70.0,62.9,52.2,60.3,57.1,48.7,93,82,65,29.95,29.65,12,2,17,0.03
2014-7-29,72.7,59.9,46.9,63.9,54.8,44.8,93,84,65,29.96,29.89,13,0,13,0.15
2014-7-30,76.5,63.7,55.2,65.3,58.4,53.1,93,84,63,29.94,29.88,13,0,13,0.01
2014-7-31,79.9,65.2,50.5,68.7,58.8,48.6,93,81,61,29.98,29.93,10,0,10,0.00
2014-8-1,80.8,69.1,57.6,70.3,63.2,55.2,93,82,63,30.03,29.96,9,0,10,0.01
2014-8-2,80.8,68.1,59.0,68.9,62.3,57.0,93,83,58,30.08,29.99,6,0,7,0.00
2014-8-3,83.5,69.9,58.8,69.6,62.7,56.3,95,79,53,30.06,29.97,9,0,10,0.00
2014-8-4,84.9,68.0,57.7,69.8,63.3,55.2,93,86,57,30.03,29.97,14,0,17,0.38
2014-8-5,77.9,68.4,62.2,70.0,64.8,60.3,93,89,72,30.01,29.92,9,0,9,0.00
2014-8-6,78.3,67.6,58.5,64.4,60.6,55.8,93,80,56,30.01,29.92,12,1,13,0.01
2014-8-7,81.9,67.3,53.8,65.1,59.0,51.6,93,77,49,30.06,29.98,9,1,10,0.00
2014-8-8,79.9,67.5,57.0,68.4,61.4,54.5,93,82,61,30.08,30.01,11,0,11,0.00
2014-8-9,81.1,67.5,54.3,66.0,60.0,52.0,93,79,52,30.07,29.99,12,1,13,0.01
2014-8-10,85.5,71.1,59.4,71.1,63.9,56.7,93,79,57,30.03,29.91,10,1,10,0.00
2014-8-11,70.3,67.6,62.8,68.2,65.3,60.6,93,92,90,29.92,29.65,13,1,13,0.85
2014-8-12,76.3,65.7,59.9,70.2,62.6,57.7,93,90,78,29.79,29.60,12,1,12,0.11
2014-8-13,76.5,64.9,54.0,63.3,57.7,51.3,93,79,55,29.91,29.79,15,1,15,0.00
2014-8-14,71.1,59.5,50.2,56.5,51.1,48.0,92,76,51,30.00,29.91,18,2,19,0.00
2014-8-15,75.4,60.2,45.3,61.3,51.8,43.2,93,76,50,30.01,29.90,12,0,12,0.00
2014-8-16,81.0,66.2,49.5,70.0,59.4,47.3,93,80,55,29.91,29.80,11,0,11,0.01
2014-8-17,72.7,67.9,63.1,66.7,64.5,61.2,93,89,80,29.93,29.82,9,0,10,0.24
2014-8-18,79.3,69.1,61.5,68.7,63.1,58.8,92,82,65,29.90,29.75,13,1,13,0.00
2014-8-19,82.8,68.9,60.4,73.2,64.7,58.5,93,87,67,29.77,29.65,17,1,22,0.31
2014-8-20,82.8,70.7,62.6,72.7,66.2,60.6,93,86,65,29.88,29.67,14,0,15,0.08
2014-8-21,81.5,71.1,62.1,74.7,67.9,60.1,93,90,76,29.93,29.86,5,0,6,0.02
2014-8-22,81.9,73.8,66.6,75.2,70.3,64.4,93,89,77,29.93,29.84,8,0,8,0.00
2014-8-23,82.6,73.4,66.2,72.0,67.7,63.7,93,83,65,29.98,29.91,9,1,9,0.00
2014-8-24,80.8,70.8,62.2,71.6,66.4,60.3,93,87,71,30.02,29.96,11,1,12,0.01
2014-8-25,86.9,75.2,65.8,76.3,70.0,63.7,93,85,67,30.02,29.93,11,1,11,0.00
2014-8-26,89.1,74.4,66.9,76.3,69.7,64.8,93,86,63,30.03,29.94,15,0,22,0.07
2014-8-27,79.3,69.1,60.1,68.2,64.0,57.7,93,85,65,30.05,29.98,11,1,13,0.01
2014-8-28,76.8,65.3,57.6,61.5,58.4,55.2,93,80,55,30.10,30.01,10,1,10,0.00
2014-8-29,80.2,66.3,55.4,68.4,60.2,53.4,93,82,63,30.07,29.93,14,1,14,0.00
2014-8-30,84.4,74.1,64.0,72.7,67.9,61.7,93,82,64,29.94,29.77,20,3,20,0.00
2014-8-31,85.8,73.8,67.1,74.3,69.0,64.9,93,86,61,29.90,29.83,14,0,15,0.12
2014-9-1,84.0,72.8,66.6,74.8,69.0,64.4,93,88,70,29.85,29.65,20,2,22,0.04
2014-9-2,79.9,70.5,61.0,72.0,66.0,59.0,93,86,61,29.89,29.76,7,1,11,0.01
2014-9-3,85.3,69.5,56.1,68.4,61.7,54.1,93,78,46,29.98,29.89,10,0,14,0.01
2014-9-4,87.4,72.0,58.8,73.8,66.2,56.8,93,83,62,29.98,29.88,19,2,19,0.00
2014-9-5,94.8,79.7,68.7,77.0,71.4,66.4,93,78,52,29.96,29.77,17,2,23,0.01
2014-9-7,76.8,66.6,54.3,58.1,55.0,51.4,90,68,48,30.14,30.09,7,0,10,0.17
2014-9-8,78.1,62.4,47.7,61.5,54.7,45.7,93,78,53,30.15,29.98,13,1,15,0.00
2014-9-9,78.4,64.8,54.0,66.2,58.0,52.0,93,80,52,30.01,29.89,11,1,12,0.00
2014-9-10,73.0,67.1,61.5,70.9,64.3,58.3,93,91,83,29.91,29.52,19,2,20,1.46
2014-9-11,70.9,56.3,50.5,68.5,52.0,47.8,93,85,76,30.16,29.55,14,1,17,0.00
2014-9-12,59.7,54.6,50.4,52.3,50.1,47.7,92,85,71,30.23,30.10,10,1,11,0.00
2014-9-13,61.2,52.3,42.3,51.8,47.2,40.1,93,84,59,30.29,30.05,14,1,17,0.13
2014-9-14,64.6,51.2,40.5,50.5,44.8,38.3,98,80,53,30.31,30.15,12,0,12,0.00
2014-9-15,62.1,52.1,43.3,54.7,49.0,41.0,93,89,74,30.16,30.00,6,0,6,0.03
2014-9-16,68.4,55.5,46.4,52.9,49.1,43.7,93,81,51,30.12,30.02,11,0,13,0.00
2014-9-17,69.6,52.8,37.8,52.0,45.3,36.0,93,78,47,30.03,29.92,7,0,11,0.00
2014-9-18,69.3,56.5,43.3,55.9,50.2,40.6,93,81,58,30.15,29.96,9,1,13,0.01
2014-9-19,70.2,55.2,41.5,54.9,48.6,39.4,93,80,55,30.21,29.98,10,1,11,0.00
2014-9-20,79.7,61.7,48.4,67.6,57.3,46.2,93,86,63,29.98,29.71,16,1,21,0.54
2014-9-21,66.6,60.8,49.3,64.4,57.1,43.7,93,88,73,29.98,29.52,15,2,19,0.18
2014-9-22,64.2,51.9,45.0,48.9,44.2,40.1,92,76,53,30.22,29.97,13,1,16,0.00
2014-9-23,72.9,55.8,42.3,58.1,49.2,40.5,93,80,53,30.30,30.22,11,0,11,0.00
2014-9-24,75.7,58.2,44.2,60.3,50.8,42.3,93,79,48,30.37,30.26,9,1,11,0.01
2014-9-25,76.6,60.0,47.1,59.4,52.5,45.1,93,79,47,30.29,30.19,7,0,9,0.01
2014-9-26,76.3,60.2,47.3,64.8,55.4,45.1,93,85,58,30.27,30.17,6,0,10,0.00
2014-9-27,78.3,61.9,48.0,61.2,54.5,46.0,93,79,52,30.25,30.13,10,0,10,0.02
2014-9-28,79.5,62.3,50.5,63.5,56.1,48.6,93,82,52,30.14,29.99,7,0,7,0.00
2014-9-29,79.2,62.9,49.3,62.6,55.7,47.3,93,80,47,29.99,29.80,7,0,10,0.01
2014-9-30,62.2,54.4,49.5,59.5,50.9,47.3,93,88,77,29.97,29.80,16,2,21,0.11
2014-10-1,67.5,56.6,49.3,55.0,50.9,47.1,93,82,60,30.01,29.93,11,1,12,0.00
2014-10-2,70.9,60.1,48.7,64.2,56.6,46.6,95,89,73,29.98,29.70,8,0,9,0.17
2014-10-3,67.6,61.3,48.9,64.0,57.9,45.9,93,89,80,29.70,29.36,23,3,23,0.60
2014-10-4,48.9,44.0,40.1,45.7,39.2,35.2,93,84,64,29.67,29.58,14,1,18,0.16
2014-10-5,54.7,46.7,39.2,43.3,40.2,36.5,93,79,53,29.72,29.62,16,1,18,0.07
2014-10-6,59.0,50.4,43.3,51.4,45.5,40.6,92,84,68,29.65,29.55,16,2,18,0.00
2014-10-7,61.0,49.3,40.1,54.1,46.1,38.3,93,89,76,29.73,29.60,15,1,15,0.06
2014-10-8,63.0,51.1,43.2,50.4,42.5,36.1,93,75,42,29.94,29.71,16,1,18,0.01
2014-10-9,61.7,48.2,39.6,45.3,39.6,36.7,93,74,43,30.06,29.92,13,1,14,0.00
2014-10-10,58.5,46.6,35.2,43.9,38.7,32.7,92,76,50,30.13,30.05,13,1,13,0.00
2014-10-11,59.0,45.4,36.0,43.3,36.1,33.1,91,73,41,30.21,30.09,12,1,12,0.00
2014-10-12,61.2,46.2,30.2,45.7,38.5,28.0,92,76,48,30.18,29.94,15,1,15,0.00
2014-10-13,71.1,60.5,48.9,66.0,57.3,45.0,93,90,83,29.94,29.70,17,2,17,0.28
2014-10-14,69.6,64.8,58.3,63.5,60.3,56.3,93,86,75,29.71,29.48,29,4,29,0.38
2014-10-15,65.8,58.2,54.1,57.0,54.0,52.2,93,86,64,29.73,29.61,12,1,12,0.01
2014-10-16,66.0,56.7,52.9,57.7,53.1,50.7,93,88,71,29.72,29.63,12,0,12,0.02
2014-10-17,65.3,55.8,50.2,55.6,51.7,47.1,93,87,69,29.63,29.45,16,2,19,0.05
2014-10-18,49.8,45.9,43.0,47.3,41.6,37.4,92,85,78,30.08,29.61,18,2,18,0.00
2014-10-19,54.9,42.5,30.0,41.2,35.5,28.0,93,77,54,30.18,29.92,12,1,12,0.00
2014-10-20,59.2,50.7,45.9,51.3,46.5,40.1,93,86,74,29.92,29.72,12,1,15,0.09
2014-10-21,48.9,46.2,42.6,46.0,41.8,36.9,92,84,77,30.18,29.82,18,3,18,0.01
2014-10-22,54.3,44.9,38.8,44.4,39.7,36.1,91,82,67,30.31,30.18,11,1,11,0.00
2014-10-23,60.1,43.6,30.0,46.6,37.7,28.0,93,81,55,30.24,30.05,11,0,12,0.01
2014-10-24,59.2,46.7,34.2,50.4,42.1,32.0,96,85,67,30.06,29.90,8,0,9,0.00
2014-10-25,70.3,54.6,43.3,56.8,45.3,35.1,93,74,36,29.90,29.69,16,1,16,0.01
2014-10-26,63.5,49.7,37.0,40.1,36.2,32.4,85,62,37,29.91,29.78,11,1,12,0.00
2014-10-27,76.3,55.2,34.0,61.9,45.8,30.7,91,72,52,29.91,29.62,20,2,20,0.00
2014-10-28,68.0,58.9,46.0,59.0,51.3,38.8,92,76,57,29.85,29.62,10,1,14,0.27
2014-10-29,49.6,44.1,38.3,42.1,38.8,34.9,91,82,71,30.04,29.85,12,1,12,0.01
2014-10-30,49.1,41.7,31.8,40.5,36.7,29.8,92,83,68,30.12,29.96,9,0,9,0.00
2014-10-31,43.9,39.7,33.3,40.1,36.5,29.1,92,88,83,30.10,29.84,29,4,29,0.17
2014-11-1,39.7,33.3,25.0,29.1,26.0,20.8,85,75,59,30.35,30.09,24,6,27,0.00
2014-11-2,51.4,34.7,21.0,29.7,24.2,18.3,91,68,35,30.42,30.24,10,0,10,0.00
2014-11-3,60.6,48.2,35.2,41.7,34.4,25.3,70,59,41,30.24,29.98,17,1,17,0.00
2014-11-4,54.9,50.1,41.0,49.1,42.7,34.3,92,77,56,30.01,29.83,18,2,20,0.09
2014-11-5,59.9,45.8,34.5,43.0,37.7,32.4,93,76,44,30.09,29.92,14,1,14,0.01
2014-11-6,46.9,43.4,37.9,44.8,40.3,33.4,92,89,80,29.99,29.66,24,2,24,0.08
2014-11-7,45.5,38.3,31.6,33.4,29.9,26.2,88,72,49,30.09,29.89,18,2,19,0.00
2014-11-8,45.3,39.6,36.7,40.6,35.0,31.8,92,83,78,29.89,29.67,19,2,19,0.05
2014-11-9,43.0,38.2,30.9,35.2,31.9,27.3,90,78,64,29.90,29.77,17,1,17,0.00
2014-11-10,58.3,47.5,37.8,43.5,36.7,33.1,87,67,48,29.90,29.66,22,3,22,0.00
2014-11-11,61.9,47.9,36.3,49.8,40.2,32.0,92,75,60,29.88,29.58,20,3,20,0.03
2014-11-12,36.3,33.3,30.6,31.8,25.6,23.2,84,73,67,30.21,29.88,17,1,17,0.00
2014-11-13,34.0,28.9,22.3,27.5,23.7,19.6,90,81,71,30.19,30.11,5,1,14,0.02
2014-11-14,35.1,27.1,19.2,28.4,22.8,16.7,91,84,68,30.31,30.17,7,1,10,0.00
2014-11-15,33.8,26.9,19.6,24.1,20.7,16.7,90,78,60,30.37,30.19,17,1,17,0.00
2014-11-16,33.8,29.7,25.7,28.9,25.1,21.2,92,83,71,30.21,29.86,12,1,13,0.00
2014-11-17,29.8,24.7,13.3,27.3,19.7,7.3,92,82,68,29.85,29.64,9,1,16,0.01
2014-11-18,21.6,15.1,10.6,13.6,8.5,5.4,80,75,66,30.11,29.82,19,2,20,0.00
2014-11-19,28.9,21.5,13.5,25.5,17.1,7.5,89,83,76,30.11,29.70,18,3,22,0.00
2014-11-20,28.2,22.3,14.4,19.6,16.3,11.1,88,78,62,30.17,29.86,20,2,22,0.00
2014-11-21,28.6,20.8,15.3,17.2,13.7,11.1,92,74,56,30.47,30.17,11,1,12,0.01
2014-11-22,44.6,34.7,19.8,42.4,31.1,12.7,93,87,69,30.31,29.91,14,2,14,0.05
2014-11-23,54.9,47.8,43.9,49.8,45.0,41.5,93,90,82,29.92,29.12,16,2,17,0.91
2014-11-24,56.1,46.3,33.4,53.8,42.8,28.8,93,87,80,29.67,28.97,29,6,33,0.49
2014-11-25,33.6,30.1,28.4,29.1,25.1,22.6,85,81,76,30.19,29.67,17,2,19,0.00
2014-11-26,32.4,29.5,27.3,26.4,24.2,21.7,84,81,77,30.19,30.06,8,0,9,0.00
2014-11-27,34.3,28.3,17.8,27.3,23.7,13.5,89,83,74,30.31,30.07,11,1,11,0.00
2014-11-28,27.5,21.1,11.1,23.9,16.6,7.5,88,83,71,30.36,30.04,13,2,14,0.01
2014-11-29,48.7,38.5,27.7,45.3,32.7,23.9,92,80,67,30.04,29.67,18,4,18,0.01
2014-11-30,60.1,52.1,39.9,54.9,48.4,36.3,92,87,83,30.04,29.66,16,2,19,0.00
2014-12-1,39.9,28.8,18.7,36.7,19.9,11.7,88,70,50,30.62,30.04,18,2,18,0.00
2014-12-2,34.2,27.2,18.0,27.3,22.0,11.1,87,80,74,30.60,30.04,12,1,12,0.00
2014-12-3,39.9,32.2,25.5,30.2,25.6,20.5,91,77,55,30.29,29.98,18,1,18,0.00
2014-12-4,33.6,27.4,23.0,23.4,20.4,17.6,87,75,60,30.44,30.29,9,0,9,0.00
2014-12-5,37.2,33.6,28.8,32.4,29.1,23.4,90,84,78,30.33,30.14,7,0,7,0.00
2014-12-6,40.1,34.2,25.2,32.5,27.9,18.1,86,78,64,30.60,30.14,17,3,18,0.00
2014-12-7,37.0,28.7,22.6,26.4,21.7,16.5,87,75,54,30.67,30.39,12,1,13,0.00
2014-12-8,39.4,34.6,28.8,35.4,29.5,24.6,92,82,66,30.39,30.00,16,2,16,0.09
2014-12-9,38.5,35.7,33.3,35.2,33.0,28.6,93,90,82,30.24,30.00,15,2,16,0.03
2014-12-10,33.3,28.0,22.6,28.6,23.3,18.7,88,83,76,30.28,30.11,18,3,18,0.00
2014-12-11,40.6,28.3,19.8,26.6,21.0,14.5,89,75,51,30.13,30.04,18,2,18,0.00
2014-12-12,39.4,32.3,27.1,32.7,29.1,24.3,92,88,76,30.21,30.08,9,1,19,0.00
2014-12-13,44.6,38.5,32.7,42.3,36.1,30.7,93,91,86,30.17,29.96,13,2,17,0.00
2014-12-14,55.4,48.6,44.8,48.9,45.0,42.3,92,87,79,30.03,29.95,18,1,19,0.00
2014-12-15,52.2,44.5,40.3,44.4,41.1,37.8,93,88,73,30.02,29.74,16,2,17,0.08
2014-12-16,45.9,42.9,37.4,43.9,40.9,34.5,93,93,90,29.88,29.61,16,1,23,0.27
2014-12-17,37.4,31.1,27.7,34.7,26.0,21.2,90,81,75,30.17,29.88,19,2,19,0.00
2014-12-18,32.5,30.1,28.0,29.7,26.2,22.1,92,85,78,30.21,30.14,9,1,9,0.00
2014-12-19,30.0,28.7,27.3,27.0,25.2,23.9,91,87,79,30.31,30.16,7,1,7,0.01
2014-12-20,30.7,28.7,23.9,26.1,24.1,20.8,92,83,76,30.29,30.22,5,0,5,0.00
2014-12-21,33.4,29.2,22.6,28.8,25.8,19.9,91,87,83,30.29,30.14,10,1,10,0.00
2014-12-22,38.5,31.2,22.8,34.0,28.1,20.7,92,88,78,30.15,29.78,6,1,7,0.04
2014-12-23,52.0,43.5,36.3,49.6,41.4,34.0,93,92,89,29.78,29.67,10,1,11,0.07
2014-12-24,47.7,42.3,34.9,45.7,40.4,33.1,93,93,93,29.67,29.21,18,2,18,0.78
2014-12-25,38.7,35.9,32.2,35.6,32.8,29.1,93,89,81,30.09,29.47,17,2,19,0.01
2014-12-26,47.1,37.8,31.3,40.3,34.6,29.3,93,88,76,30.11,30.02,13,2,13,0.01
2014-12-27,46.9,42.4,36.3,45.0,40.1,32.2,98,92,83,30.08,29.88,16,2,18,0.05
2014-12-28,36.3,32.8,25.3,32.5,28.0,21.6,91,82,69,30.18,29.95,12,1,12,0.00
2014-12-29,32.4,25.2,16.9,23.2,18.1,11.8,92,75,53,30.41,30.18,14,1,14,0.00
2014-12-30,25.9,18.9,12.9,14.9,11.7,8.1,85,74,59,30.55,30.41,16,1,20,0.00
2014-12-31,23.2,17.7,13.8,12.4,8.4,3.0,80,67,53,30.49,30.09,18,2,18,0.00
2015-1-1,31.3,23.3,15.3,19.4,13.4,7.9,75,66,53,30.10,29.88,16,2,17,0.00
2015-1-2,37.2,29.7,24.3,23.9,21.6,19.2,84,72,56,30.32,30.05,11,0,11,0.00